Regional Weather Roundup
Issued by NWS

Home | Current Version | Previous Version | Graphics & Text | Print | Product List | Glossary On
Versions: 1 2 3 4 5 6 7 8 9 10 11 12 13 14 15 16 17 18 19 20 21 22 23 24 25 26 27 28 29 30 31 32 33 34 35 36 37 38 39 40 41 42 43 44 45 46 47 48 49 50
000
ASUS43 KLMK 181702
RWRKY
KENTUCKY REGIONAL WEATHER ROUNDUP
NATIONAL WEATHER SERVICE LOUISVILLE KY
1200 PM EST THU JAN 18 2018

NOTE "FAIR" INDICATES FEW OR NO CLOUDS BELOW 12,000 FEET
WITH NO SIGNIFICANT WEATHER AND/OR OBSTRUCTIONS TO VISIBILITY.

KYZ001>023-026-027-061>063-070>075-181800-
WESTERN AND SOUTH CENTRAL KENTUCKY

CITY           SKY/WX    TMP DP  RH WIND       PRES   REMARKS
PADUCAH        FAIR      22  32 100 SW8       30.48  WCI  12
HENDERSON      FAIR      23  13  65 SW12      30.46  WCI  12
OWENSBORO      FAIR      24  14  65 S8        30.48  WCI  15
HOPKINSVILLE   FAIR      23  12  63 W8        30.50  WCI  14
BOWLING GREEN  FAIR      21  12  68 SW10      30.52  WCI  10
GLASGOW        NOT AVBL
$$

KYZ024-025-028>034-038-045-046-053-181800-
NORTH CENTRAL KENTUCKY

CITY           SKY/WX    TMP DP  RH WIND       PRES   REMARKS
LOUISVILLE/SDF FAIR      24  12  60 SW13      30.44  WCI  12
LOUISVILLE/LOU FAIR      22  12  65 SW10      30.44  WCI  11
FORT KNOX      FAIR      23  10  58 SW12      30.42  WCI  12
$$

KYZ035>037-039>044-047>052-055>060-089>105-181800-
NORTHEAST KENTUCKY

CITY           SKY/WX    TMP DP  RH WIND       PRES   REMARKS
LEXINGTON      FAIR      21  12  68 S15       30.41  WCI   8
COVINGTON      FAIR      22  11  62 SW12      30.32  WCI  10
FRANKFORT      FAIR      22   9  57 SW14      30.41  WCI   9
$$

KYZ054-064>069-076>088-106>120-181800-
SOUTHEAST KENTUCKY

CITY           SKY/WX    TMP DP  RH WIND       PRES   REMARKS
JACKSON        FAIR      21  11  65 VRB5      30.41  WCI  15
LONDON         FAIR      19  11  70 S7        30.46  WCI  10
SOMERSET       NOT AVBL
MIDDLESBORO    FAIR      22  12  64 CALM      30.49F
MONTICELLO     FAIR      31  14  49 E5        30.49  WCI  26
$$





USA.gov is the U.S. government's official web portal to all federal, state and local government web resources and services.